Mullan Pass, ID

2:40 AM PDT on October 15, 2019 (GMT -0700)
Mullan Pass

Weather History for KMLP - August, 2019

Change the Weather History Date:

Wednesday, August 21, 2019

  Actual Average (K3TH) Record (K3TH)
Temperature  
Mean Temperature 65 °F -  
Max Temperature 75 °F 83 °F 89 °F (1997)
Min Temperature 54 °F 52 °F 47 °F (1996)
Growing Degree Days 15 (Base 50)    
Moisture  
Dew Point 40 °F    
Average Humidity 38    
Maximum Humidity 64    
Minimum Humidity 32    
Precipitation  
Precipitation 0.00 in - - ()
Sea Level Pressure  
Sea Level Pressure 29.78 in    
Wind  
Wind Speed 5 mph (South)    
Max Wind Speed 8 mph    
Max Gust Speed 18 mph    
Visibility 10 miles    
Events      
Averages and records for this station are not official NWS values.
T = Trace of Precipitation, MM = Missing Value Source: NWS Daily Summary

Daily Weather History Graph

Daily Weather History Graph

Search for Another Location

Airport or City:

Astronomy

Aug. 21, 2019 Rise Set
Actual Time 5:46 AM PDT 7:44 PM PDT
Civil Twilight 5:13 AM PDT 8:16 PM PDT
Nautical Twilight 4:32 AM PDT 8:57 PM PDT
Astronomical Twilight 3:47 AM PDT 9:42 PM PDT
Moon 10:39 PM PDT (8/21) 11:49 AM PDT (8/21)
Length of Visible Light 15h 03m
Length of Day
13h 57m
Waning Gibbous, 68% of the Moon is Illuminated
Aug 21
Waning Gibbous
Aug 23
Last Quarter
Aug 30
New
Sep 5
First Quarter
Sep 13
Full

Hourly Weather History & Observations

Time (PDT) Temp. Dew Point Humidity Pressure Visibility Wind Dir Wind Speed Gust Speed Precip Events Conditions
12:53 AM 66.9 °F 39.0 °F 36% 29.85 in 10.0 mi SE 6.9 mph - N/A   Clear
1:53 AM 66.9 °F 39.0 °F 36% 29.84 in 10.0 mi ESE 5.8 mph - N/A   Clear
2:53 AM 66.9 °F 39.0 °F 36% 29.83 in 10.0 mi SE 5.8 mph - N/A   Clear
3:53 AM 68.0 °F 37.9 °F 33% 29.82 in 10.0 mi SSE 4.6 mph - N/A   Clear
4:53 AM 66.9 °F 37.9 °F 34% 29.82 in 10.0 mi SSE 5.8 mph - N/A   Clear
5:53 AM 68.0 °F 37.9 °F 33% 29.81 in 10.0 mi SSE 4.6 mph - N/A   Clear
6:53 AM 66.9 °F 37.9 °F 34% 29.82 in 10.0 mi SSE 4.6 mph - N/A   Clear
7:53 AM 68.0 °F 37.9 °F 33% 29.83 in 10.0 mi Calm Calm - N/A   Clear
8:53 AM 66.9 °F 43.0 °F 42% 29.82 in 10.0 mi Calm Calm - N/A   Clear
9:53 AM 66.9 °F 39.9 °F 37% 29.83 in 10.0 mi Variable 3.5 mph - N/A   Clear
10:53 AM 69.1 °F 42.1 °F 38% 29.82 in 10.0 mi Variable 4.6 mph - N/A   Clear
11:53 AM 70.0 °F 42.1 °F 36% 29.81 in 10.0 mi Variable 4.6 mph - N/A   Clear
12:53 PM 73.0 °F 45.0 °F 37% 29.78 in 10.0 mi Calm Calm - N/A   Clear
1:53 PM 75.0 °F 43.0 °F 32% 29.76 in 10.0 mi SW 5.8 mph - N/A   Clear
2:53 PM 75.0 °F 46.0 °F 36% 29.74 in 9.0 mi Variable 4.6 mph - N/A   Clear
3:53 PM 75.0 °F 46.0 °F 36% 29.72 in 10.0 mi Variable 3.5 mph - N/A   Clear
4:53 PM 73.0 °F 45.0 °F 37% 29.71 in 10.0 mi Calm Calm - N/A   Clear
5:53 PM 66.0 °F 43.0 °F 43% 29.71 in 10.0 mi WNW 8.1 mph 18.4 mph N/A   Clear
6:53 PM 64.0 °F 41.0 °F 43% 29.72 in 10.0 mi Variable 6.9 mph - N/A   Clear
7:53 PM 62.1 °F 37.0 °F 39% 29.74 in 10.0 mi NW 8.1 mph - N/A   Clear
8:53 PM 60.1 °F 34.0 °F 38% 29.76 in 10.0 mi NW 6.9 mph - N/A   Clear
9:53 PM 57.9 °F 34.0 °F 41% 29.75 in 10.0 mi Variable 5.8 mph - N/A   Clear
10:53 PM 55.9 °F 37.0 °F 49% 29.75 in 10.0 mi Variable 6.9 mph - N/A   Clear
11:53 PM 54.0 °F 42.1 °F 64% 29.76 in 10.0 mi Variable 6.9 mph - N/A   Partly Cloudy